QPF
0.00 0.00 0.00 0.00 0.00 0.00 0.00 0.00 0.00 0.02 0.00 0.00 0.00 0.00 0.00 0.00 0.00 0.00 0.00 0.00 0.00 0.00 0.00 0.00 0.00 0.00 0.00 0.00 0.00 0.00 0.00 0.01 0.07 0.08 0.08 0.10 0.06 0.07 0.02 0.00 0.00 0.06 0.07 0.03
0.00 0.00 0.00 0.00 0.00 0.00 0.00 0.00 0.00 0.00 0.00 0.00 0.00 0.00 0.00 0.00 0.07 0.00 0.00 0.00 0.00 0.00 0.00 0.00 0.00 0.00 0.00 0.00 0.00 0.00 0.01 0.06 0.13 0.10 0.11 0.09 0.11 0.08 0.09 0.05 0.03 0.02 0.09 0.05
0.00 0.00 0.00 0.00 0.00 0.00 0.00 0.00 0.00 0.00 0.00 0.00 0.00 0.00 0.00 0.00 0.10 0.00 0.00 0.00 0.00 0.00 0.00 0.00 0.00 0.00 0.00 0.00 0.00 0.01 0.11 0.12 0.14 0.12 0.10 0.10 0.13 0.16 0.14 0.16 0.10 0.06 0.08 0.08
0.00 0.00 0.00 0.00 0.00 0.00 0.00 0.00 0.00 0.00 0.00 0.00 0.00 0.00 0.00 0.00 0.00 0.00 0.01 0.00 0.00 0.00 0.00 0.00 0.00 0.00 0.00 0.00 0.00 0.02 0.06 0.07 0.09 0.11 0.12 0.10 0.11 0.05 0.11 0.06 0.07 0.11 0.10 0.07
0.00 0.00 0.00 0.00 0.00 0.00 0.00 0.00 0.00 0.00 0.00 0.00 0.00 0.00 0.00 0.00 0.01 0.05 0.01 0.00 0.00 0.00 0.00 0.00 0.00 0.00 0.00 0.00 0.00 0.00 0.02 0.02 0.02 0.01 0.03 0.04 0.00 0.04 0.09 0.09 0.07 0.10 0.11 0.07
0.00 0.00 0.00 0.00 0.00 0.00 0.00 0.00 0.00 0.00 0.00 0.00 0.00 0.00 0.00 0.00 0.01 0.03 0.00 0.00 0.00 0.00 0.00 0.00 0.00 0.00 0.00 0.00 0.00 0.00 0.00 0.00 0.00 0.00 0.01 0.02 0.02 0.07 0.07 0.12 0.07 0.11 0.11 0.07
0.00 0.00 0.00 0.00 0.00 0.00 0.00 0.00 0.00 0.00 0.00 0.00 0.00 0.00 0.00 0.00 0.00 0.00 0.00 0.00 0.00 0.00 0.00 0.00 0.00 0.00 0.00 0.00 0.00 0.00 0.00 0.00 0.00 0.00 0.00 0.00 0.10 0.12 0.09 0.13 0.15 0.11 0.09 0.08
0.00 0.00 0.00 0.00 0.00 0.00 0.00 0.00 0.00 0.00 0.00 0.00 0.00 0.00 0.00 0.00 0.00 0.00 0.00 0.00 0.00 0.00 0.01 0.01 0.00 0.00 0.00 0.00 0.00 0.00 0.00 0.00 0.00 0.00 0.00 0.02 0.02 0.01 0.09 0.12 0.20 0.12 0.11 0.13
0.00 0.00 0.00 0.00 0.00 0.00 0.00 0.00 0.00 0.00 0.00 0.00 0.00 0.00 0.00 0.00 0.00 0.00 0.00 0.00 0.00 0.00 0.03 0.05 0.01 0.00 0.00 0.00 0.00 0.00 0.00 0.00 0.00 0.00 0.00 0.05 0.01 0.01 0.07 0.10 0.15 0.18 0.15 0.10
0.00 0.00 0.00 0.00 0.00 0.00 0.00 0.00 0.00 0.00 0.00 0.00 0.00 0.00 0.00 0.01 0.00 0.00 0.00 0.00 0.00 0.00 0.02 0.02 0.04 0.00 0.00 0.00 0.00 0.00 0.00 0.00 0.00 0.00 0.01 0.02 0.01 0.03 0.05 0.07 0.08 0.09 0.14 0.16
0.00 0.00 0.00 0.00 0.00 0.00 0.00 0.00 0.00 0.00 0.00 0.00 0.00 0.00 0.01 0.10 0.04 0.02 0.00 0.00 0.00 0.00 0.00 0.11 0.04 0.00 0.00 0.00 0.00 0.00 0.00 0.00 0.00 0.00 0.02 0.01 0.00 0.01 0.02 0.00 0.02 0.03 0.04 0.08
0.00 0.00 0.00 0.00 0.00 0.00 0.00 0.00 0.00 0.00 0.00 0.00 0.00 0.00 0.03 0.10 0.10 0.06 0.01 0.00 0.00 0.00 0.02 0.04 0.01 0.00 0.00 0.00 0.00 0.00 0.00 0.00 0.00 0.00 0.01 0.00 0.00 0.00 0.00 0.00 0.00 0.00 0.00 0.01
0.00 0.00 0.00 0.00 0.00 0.00 0.00 0.00 0.00 0.00 0.00 0.00 0.00 0.00 0.01 0.02 0.04 0.02 0.00 0.00 0.00 0.00 0.00 0.00 0.01 0.00 0.00 0.00 0.00 0.01 0.00 0.00 0.00 0.00 0.00 0.00 0.00 0.00 0.00 0.01 0.00 0.00 0.00 0.01
0.00 0.00 0.00 0.00 0.00 0.00 0.00 0.00 0.00 0.00 0.00 0.00 0.00 0.00 0.01 0.13 0.05 0.08 0.05 0.00 0.00 0.00 0.00 0.00 0.00 0.00 0.00 0.00 0.00 0.00 0.00 0.00 0.00 0.00 0.00 0.00 0.00 0.00 0.01 0.01 0.03 0.03 0.01 0.01
0.00 0.00 0.00 0.00 0.00 0.00 0.00 0.00 0.00 0.00 0.00 0.00 0.00 0.00 0.00 0.30 0.38 0.14 0.13 0.01 0.00 0.00 0.00 0.00 0.00 0.00 0.00 0.00 0.00 0.00 0.00 0.00 0.00 0.00 0.00 0.00 0.00 0.00 0.00 0.01 0.01 0.01 0.02 0.04
0.00 0.00 0.00 0.00 0.00 0.00 0.00 0.00 0.00 0.00 0.00 0.00 0.00 0.00 0.01 0.05 0.07 0.11 0.15 0.01 0.00 0.00 0.00 0.00 0.00 0.00 0.00 0.00 0.00 0.00 0.00 0.00 0.00 0.00 0.00 0.00 0.00 0.00 0.00 0.00 0.00 0.00 0.01 0.06
0.00 0.00 0.00 0.00 0.00 0.00 0.00 0.00 0.00 0.00 0.00 0.00 0.00 0.00 0.13 0.17 0.09 0.09 0.08 0.00 0.00 0.00 0.00 0.00 0.00 0.00 0.00 0.00 0.00 0.00 0.00 0.00 0.00 0.00 0.00 0.00 0.00 0.00 0.00 0.00 0.01 0.04 0.06 0.08
0.00 0.00 0.00 0.00 0.00 0.00 0.00 0.01 0.00 0.00 0.00 0.00 0.00 0.00 0.06 0.26 0.09 0.04 0.00 0.00 0.00 0.00 0.00 0.00 0.00 0.00 0.00 0.00 0.00 0.00 0.00 0.00 0.01 0.01 0.00 0.00 0.00 0.00 0.03 0.10 0.13 0.09 0.05 0.02
0.00 0.00 0.00 0.00 0.00 0.00 0.00 0.00 0.00 0.00 0.00 0.00 0.00 0.00 0.01 0.02 0.01 0.00 0.00 0.00 0.00 0.00 0.00 0.00 0.00 0.00 0.00 0.00 0.00 0.00 0.00 0.00 0.01 0.03 0.02 0.02 0.05 0.07 0.12 0.16 0.13 0.03 0.00 0.00
0.00 0.00 0.00 0.00 0.00 0.00 0.00 0.00 0.00 0.00 0.00 0.00 0.00 0.00 0.00 0.00 0.00 0.00 0.00 0.00 0.00 0.00 0.00 0.00 0.00 0.00 0.00 0.00 0.00 0.00 0.00 0.00 0.02 0.05 0.03 0.03 0.02 0.06 0.06 0.02 0.00 0.00 0.00 0.00
0.00 0.00 0.00 0.00 0.00 0.00 0.00 0.00 0.00 0.00 0.00 0.00 0.00 0.00 0.00 0.02 0.04 0.04 0.00 0.00 0.00 0.00 0.00 0.00 0.00 0.00 0.00 0.00 0.00 0.00 0.00 0.00 0.01 0.02 0.00 0.00 0.01 0.03 0.02 0.04 0.03 0.02 0.01 0.00
0.01 0.00 0.00 0.00 0.00 0.00 0.00 0.00 0.00 0.00 0.00 0.00 0.00 0.00 0.09 0.12 0.04 0.00 0.00 0.00 0.00 0.00 0.00 0.00 0.00 0.00 0.00 0.00 0.00 0.00 0.00 0.01 0.03 0.05 0.05 0.03 0.03 0.03 0.02 0.02 0.01 0.01 0.01 0.02
0.02 0.01 0.02 0.00 0.01 0.00 0.00 0.00 0.00 0.00 0.00 0.00 0.00 0.00 0.01 0.00 0.00 0.00 0.00 0.00 0.00 0.00 0.00 0.00 0.00 0.00 0.00 0.00 0.00 0.01 0.01 0.02 0.05 0.06 0.05 0.04 0.02 0.01 0.01 0.01 0.02 0.11 0.11 0.04
0.15 0.11 0.04 0.08 0.03 0.08 0.02 0.00 0.00 0.00 0.00 0.00 0.00 0.00 0.00 0.00 0.00 0.00 0.00 0.00 0.00 0.00 0.00 0.00 0.00 0.00 0.00 0.00 0.00 0.01 0.01 0.02 0.05 0.05 0.04 0.02 0.00 0.02 0.03 0.01 0.01 0.02 0.01 0.00
0.02 0.04 0.01 0.07 0.42 0.23 0.09 0.00 0.00 0.00 0.00 0.00 0.00 0.00 0.00 0.00 0.00 0.00 0.00 0.00 0.00 0.00 0.00 0.00 0.00 0.00 0.00 0.00 0.00 0.00 0.00 0.01 0.01 0.01 0.01 0.00 0.00 0.00 0.00 0.00 0.00 0.00 0.00 0.00
0.00 0.01 0.02 0.01 0.13 0.25 0.06 0.00 0.00 0.00 0.00 0.00 0.00 0.00 0.00 0.00 0.00 0.00 0.00 0.00 0.00 0.00 0.00 0.00 0.00 0.00 0.00 0.00 0.00 0.00 0.00 0.00 0.00 0.00 0.00 0.00 0.00 0.00 0.00 0.00 0.00 0.00 0.00 0.00
MSLP
1002.34 1002.01 1000.82 1000.10 999.47 999.08 998.28 998.35 998.92 1001.02 998.92 998.67 998.36 997.67 997.85 998.47 999.06 998.66 998.73 999.69 1000.20 1000.83 1001.44 1002.88 1004.11 1005.06 1006.42 1007.54 1008.57 1009.37 1009.93 1010.32 1010.82 1011.11 1011.51 1011.58 1011.37 1011.37 1010.99 1010.93 1011.02 1011.23 1011.59 1011.93
1001.49 1000.77 1000.14 999.62 999.01 998.66 998.29 998.22 998.35 998.24 997.95 997.94 997.79 997.89 998.61 1000.16 1001.69 1001.75 1000.78 999.76 999.82 999.63 1001.16 1002.61 1003.58 1004.64 1005.91 1007.24 1008.33 1009.22 1009.79 1010.15 1010.80 1011.27 1011.46 1011.58 1011.55 1011.56 1011.46 1011.32 1011.06 1011.28 1011.69 1011.82
1000.34 999.15 998.84 999.27 998.78 998.61 998.42 998.19 997.91 997.66 997.34 997.06 997.58 998.18 998.94 1001.61 1001.66 1001.52 999.90 998.97 999.13 999.82 1001.04 1002.29 1003.15 1004.08 1005.89 1007.49 1008.35 1008.96 1009.74 1010.29 1010.72 1011.21 1011.38 1011.53 1011.67 1011.51 1011.34 1011.38 1011.32 1011.10 1011.09 1011.61
999.48 999.02 998.42 998.61 998.43 998.43 998.15 997.95 998.08 998.01 997.93 997.33 997.47 997.50 998.58 1000.94 1001.65 1001.61 1000.98 999.51 999.45 1000.10 1001.28 1002.63 1003.88 1005.03 1005.97 1006.93 1007.80 1008.59 1009.24 1009.91 1010.54 1011.14 1011.32 1011.61 1011.74 1011.69 1011.34 1011.21 1011.17 1011.14 1011.09 1011.11
998.64 998.27 998.17 997.99 998.05 998.11 998.16 997.80 998.02 998.30 998.28 998.30 998.19 998.29 999.14 1000.10 1002.06 1001.73 1001.14 1000.22 999.30 1000.36 1001.64 1003.25 1004.34 1005.18 1006.09 1006.56 1007.24 1008.57 1009.15 1009.88 1010.49 1010.84 1011.15 1011.41 1011.65 1011.60 1011.24 1010.98 1010.81 1010.80 1010.93 1010.68
998.35 997.54 997.54 997.52 997.50 997.84 998.16 998.21 998.69 999.04 998.82 998.39 998.34 998.57 998.91 999.44 1001.00 1000.47 999.90 999.56 1000.10 1001.22 1002.65 1003.84 1004.92 1005.82 1005.96 1006.30 1007.19 1008.46 1009.20 1009.77 1010.20 1010.62 1010.98 1011.33 1011.44 1011.19 1010.98 1010.61 1010.42 1010.35 1010.53 1010.79
997.83 997.56 997.41 997.73 997.34 997.43 998.07 998.51 998.62 998.90 998.62 998.26 998.30 998.12 997.73 997.91 998.89 998.97 999.48 999.79 1000.81 1002.15 1003.45 1004.44 1005.54 1005.95 1006.02 1006.26 1007.35 1008.26 1009.36 1009.93 1010.17 1010.53 1010.93 1011.32 1011.44 1011.15 1010.85 1010.53 1010.14 1010.26 1010.44 1010.59
997.29 996.80 996.73 996.75 997.20 997.00 997.45 998.32 998.26 998.05 998.10 999.19 999.37 999.45 998.90 997.57 998.43 998.66 998.74 999.67 1000.85 1002.47 1003.55 1004.39 1005.35 1005.91 1006.21 1006.91 1007.73 1008.47 1009.50 1010.22 1010.38 1010.51 1010.90 1011.24 1011.55 1011.42 1010.97 1010.64 1010.28 1010.34 1010.47 1010.54
996.51 995.66 994.89 995.53 996.38 997.17 996.93 997.58 998.20 998.27 998.14 998.55 998.95 999.21 999.10 998.39 998.98 999.38 999.40 1000.01 1000.97 1002.71 1003.91 1005.12 1005.52 1005.77 1006.69 1007.29 1007.99 1008.72 1009.68 1010.24 1010.44 1010.70 1010.98 1011.34 1011.65 1011.72 1011.28 1010.82 1010.59 1010.59 1010.65 1010.70
996.70 996.08 995.45 994.88 995.80 996.53 996.96 997.22 997.76 998.17 998.22 998.16 998.08 999.02 999.81 1000.03 1000.91 1000.53 1000.23 1000.50 1001.31 1002.90 1004.26 1004.82 1005.03 1005.76 1006.62 1007.55 1008.43 1009.18 1009.73 1010.23 1010.42 1010.82 1011.05 1011.45 1011.93 1011.86 1011.53 1011.23 1011.10 1010.96 1011.04 1011.01
996.51 996.75 996.08 995.28 995.44 996.06 996.47 996.89 996.94 997.22 997.62 997.73 998.36 1001.15 1002.10 1002.23 1001.97 1001.87 1001.10 1000.97 1001.58 1002.90 1003.86 1005.00 1005.57 1006.18 1006.72 1007.72 1008.48 1009.18 1009.50 1010.01 1010.31 1010.75 1011.09 1011.46 1011.91 1012.00 1011.94 1011.83 1011.65 1011.55 1011.44 1011.34
996.23 996.55 996.46 995.53 995.40 996.01 995.71 995.92 996.61 996.97 997.47 997.69 998.50 1000.74 1002.15 1004.22 1003.79 1001.77 1001.90 1001.35 1001.82 1002.91 1004.28 1005.03 1005.76 1006.42 1006.92 1007.61 1008.07 1008.80 1009.08 1009.55 1010.19 1010.48 1010.85 1011.31 1011.68 1011.86 1011.98 1012.08 1011.96 1011.88 1011.89 1011.96
996.00 996.54 996.62 996.23 995.54 995.28 995.42 995.60 995.91 996.73 997.41 997.72 998.92 1001.07 1003.40 1004.04 1003.91 1001.88 1001.19 1001.80 1002.22 1003.51 1004.59 1005.45 1006.02 1006.55 1006.76 1007.34 1008.44 1009.16 1009.43 1009.60 1009.86 1010.13 1010.77 1010.90 1011.31 1011.54 1011.71 1012.02 1012.16 1012.19 1012.26 1012.31
997.06 996.94 996.83 996.07 995.57 995.64 995.22 995.29 995.45 995.79 996.44 997.23 998.19 1000.75 1002.52 1003.09 1002.97 1002.74 1003.59 1002.80 1003.20 1004.00 1005.15 1005.83 1006.25 1006.71 1006.93 1007.61 1008.43 1008.99 1009.22 1008.99 1009.63 1010.07 1010.66 1010.77 1011.07 1011.28 1011.37 1011.66 1012.06 1012.35 1012.54 1012.75
997.61 997.50 997.00 996.42 995.91 995.42 995.11 994.93 994.99 995.23 995.52 996.69 998.02 1000.27 1003.16 1003.55 1003.76 1004.00 1004.94 1003.88 1004.01 1004.42 1005.22 1005.97 1006.57 1006.89 1007.29 1007.66 1008.17 1008.59 1008.80 1008.95 1009.51 1009.99 1010.40 1010.66 1010.93 1010.93 1011.38 1011.70 1012.07 1012.32 1012.69 1013.03
997.90 997.91 997.79 997.00 996.28 995.52 995.12 994.90 994.68 994.79 995.32 996.19 997.69 1001.91 1004.05 1004.58 1004.95 1005.08 1005.79 1005.24 1004.93 1004.96 1005.66 1006.19 1006.87 1007.35 1007.79 1008.03 1008.27 1008.52 1008.56 1008.81 1009.29 1009.73 1010.08 1010.41 1010.70 1011.28 1011.57 1011.93 1012.29 1012.52 1012.84 1013.24
998.13 998.12 998.19 997.40 996.92 996.03 995.20 995.17 995.06 994.83 995.24 995.98 998.14 1001.51 1004.21 1005.90 1006.02 1005.74 1006.18 1005.38 1005.22 1005.43 1006.29 1007.07 1007.59 1008.08 1008.61 1008.66 1008.85 1009.05 1009.22 1009.36 1009.47 1009.82 1010.04 1010.47 1010.92 1011.45 1011.79 1012.00 1012.32 1012.81 1013.28 1013.79
998.77 998.66 998.51 997.96 997.44 996.44 995.94 996.32 995.65 995.46 995.21 995.90 998.43 1000.93 1003.10 1003.29 1004.86 1005.74 1004.44 1004.89 1005.53 1006.55 1007.16 1007.77 1008.23 1008.90 1009.49 1009.78 1010.02 1010.23 1010.20 1010.15 1009.92 1010.06 1010.28 1010.64 1011.10 1011.59 1012.03 1012.55 1013.33 1013.92 1014.31 1014.77
999.23 999.68 998.98 998.59 997.82 997.19 997.17 996.77 996.73 996.30 995.97 996.43 997.66 1000.35 1002.95 1004.29 1005.26 1005.23 1005.76 1006.40 1006.68 1007.40 1008.27 1009.20 1009.89 1010.54 1011.13 1011.44 1011.47 1011.16 1010.85 1010.80 1010.41 1010.40 1010.72 1011.11 1011.62 1012.62 1013.30 1013.96 1014.30 1014.79 1015.22 1015.92
999.09 999.58 999.98 999.67 998.28 997.29 996.34 996.28 996.62 997.03 996.93 997.09 998.26 999.89 1002.40 1004.00 1004.92 1006.61 1006.96 1007.69 1008.17 1008.95 1010.13 1010.92 1011.41 1011.84 1012.15 1012.37 1012.08 1011.74 1011.22 1011.20 1011.19 1011.69 1011.92 1012.26 1013.18 1014.16 1014.93 1015.15 1015.50 1015.90 1016.24 1016.89
999.43 999.66 999.58 999.48 998.91 997.72 996.84 997.19 997.37 997.63 998.63 998.76 999.77 1000.10 1002.28 1003.92 1005.08 1006.57 1007.55 1008.56 1009.41 1010.42 1011.54 1012.04 1012.51 1012.82 1013.12 1013.28 1013.23 1013.23 1013.14 1013.08 1013.27 1013.17 1013.34 1013.78 1014.72 1015.76 1016.20 1016.39 1016.75 1017.22 1017.78 1018.35
999.41 999.74 999.89 999.94 999.43 998.40 997.70 997.66 998.14 999.10 999.39 999.84 1001.40 1002.82 1003.83 1005.37 1006.42 1007.27 1008.52 1009.53 1010.60 1011.66 1012.40 1013.00 1013.48 1013.90 1014.11 1014.18 1014.21 1014.37 1014.42 1014.64 1014.53 1014.37 1014.75 1015.37 1015.90 1016.56 1017.04 1017.30 1018.19 1018.83 1019.25 1019.67
1001.75 1001.94 1000.87 1001.38 1000.69 999.77 999.15 999.16 999.44 999.52 1000.01 1000.91 1002.10 1003.42 1004.47 1005.64 1006.85 1008.11 1009.45 1010.80 1011.79 1012.76 1013.35 1013.83 1014.25 1014.73 1014.94 1015.03 1015.04 1015.23 1015.66 1015.63 1015.82 1015.70 1016.05 1016.48 1016.97 1017.57 1018.09 1018.43 1019.08 1019.63 1020.24 1020.63
1003.42 1004.11 1003.70 1003.23 1002.24 1002.13 1001.14 1000.36 999.99 1000.28 1000.96 1001.80 1002.78 1003.77 1004.87 1006.07 1007.51 1009.21 1010.55 1011.56 1012.55 1013.37 1013.99 1014.43 1014.69 1015.26 1015.69 1015.84 1015.86 1016.02 1016.35 1016.42 1016.62 1016.78 1017.15 1017.50 1017.90 1018.29 1018.78 1019.18 1019.85 1020.54 1021.19 1021.55
1004.07 1004.45 1003.97 1003.72 1003.80 1004.46 1002.37 1001.03 1001.04 1001.48 1002.06 1002.61 1003.45 1004.29 1005.47 1006.71 1008.26 1009.96 1011.25 1012.21 1013.09 1013.88 1014.51 1014.99 1015.20 1015.52 1016.04 1016.38 1016.39 1016.54 1016.88 1016.92 1017.14 1017.48 1017.90 1018.20 1018.62 1019.15 1019.74 1020.25 1021.02 1021.76 1022.16 1022.33
1003.73 1004.27 1004.80 1004.04 1004.59 1005.75 1004.84 1002.58 1002.53 1002.64 1003.13 1003.71 1004.61 1005.53 1006.52 1007.51 1008.84 1010.36 1011.71 1012.82 1013.70 1014.39 1015.01 1015.36 1015.68 1015.92 1016.20 1016.38 1016.64 1016.93 1017.07 1017.16 1017.43 1017.87 1018.38 1018.85 1019.25 1019.78 1020.32 1021.06 1022.00 1022.68 1022.85 1022.97
Thickness
5822 5806 5805 5822 5837 5840 5844 5839 5836 5787 5851 5847 5840 5846 5859 5864 5853 5858 5852 5827 5831 5834 5833 5830 5823 5815 5803 5794 5783 5774 5767 5763 5756 5749 5742 5739 5738 5737 5739 5739 5736 5737 5736 5736
5813 5801 5829 5842 5844 5839 5839 5830 5830 5847 5860 5848 5840 5838 5854 5830 5811 5811 5829 5841 5839 5841 5834 5824 5820 5815 5803 5793 5783 5774 5766 5761 5753 5746 5742 5738 5734 5728 5725 5725 5727 5726 5727 5727
5806 5829 5847 5833 5832 5825 5828 5823 5828 5830 5849 5854 5839 5825 5839 5808 5814 5820 5842 5855 5848 5838 5828 5823 5815 5814 5799 5784 5779 5775 5766 5760 5753 5746 5740 5732 5726 5721 5718 5715 5717 5721 5724 5723
5819 5839 5835 5827 5822 5829 5809 5842 5836 5830 5822 5806 5848 5803 5839 5816 5812 5813 5798 5843 5843 5838 5833 5820 5810 5800 5798 5789 5782 5777 5768 5760 5752 5742 5733 5723 5713 5708 5713 5714 5714 5715 5719 5722
5815 5825 5823 5819 5824 5835 5819 5846 5834 5829 5817 5813 5818 5808 5820 5826 5790 5798 5804 5790 5841 5835 5825 5815 5807 5802 5796 5794 5787 5772 5765 5757 5749 5743 5734 5723 5712 5709 5711 5713 5713 5714 5717 5721
5824 5851 5840 5834 5842 5839 5841 5829 5822 5818 5811 5782 5809 5808 5807 5799 5794 5805 5823 5837 5831 5824 5816 5810 5803 5797 5794 5794 5785 5771 5761 5755 5750 5743 5735 5723 5714 5712 5712 5714 5714 5716 5718 5717
5816 5820 5837 5839 5823 5837 5827 5807 5775 5767 5775 5777 5821 5815 5823 5837 5829 5831 5823 5828 5822 5813 5807 5799 5789 5788 5788 5788 5780 5771 5757 5750 5747 5741 5732 5723 5714 5713 5714 5714 5716 5715 5715 5716
5788 5785 5823 5841 5823 5817 5815 5806 5781 5758 5773 5770 5795 5760 5784 5846 5846 5847 5843 5831 5821 5808 5804 5799 5791 5787 5785 5780 5773 5765 5752 5744 5743 5739 5731 5724 5713 5711 5713 5714 5716 5715 5714 5715
5797 5807 5857 5846 5837 5829 5816 5794 5820 5792 5806 5790 5794 5804 5816 5836 5832 5832 5832 5827 5816 5803 5798 5788 5788 5789 5780 5776 5768 5761 5749 5742 5741 5737 5731 5724 5714 5709 5711 5713 5715 5714 5714 5714
5810 5790 5833 5848 5843 5833 5819 5831 5787 5791 5756 5758 5801 5800 5781 5792 5791 5817 5820 5819 5814 5803 5788 5792 5793 5788 5781 5772 5764 5754 5747 5739 5740 5736 5730 5724 5717 5710 5711 5712 5712 5713 5712 5713
5816 5799 5805 5837 5817 5807 5809 5799 5809 5812 5804 5782 5783 5757 5785 5775 5789 5795 5813 5818 5812 5804 5797 5786 5785 5782 5777 5769 5760 5752 5744 5740 5737 5734 5730 5724 5718 5714 5710 5707 5709 5710 5711 5713
5819 5801 5780 5806 5834 5834 5829 5816 5809 5783 5781 5803 5800 5759 5790 5763 5765 5790 5802 5816 5814 5806 5794 5789 5784 5779 5774 5766 5763 5752 5746 5741 5739 5736 5731 5725 5720 5717 5713 5709 5708 5709 5708 5709
5821 5791 5768 5781 5814 5828 5811 5819 5821 5811 5803 5785 5775 5779 5775 5773 5760 5782 5809 5810 5808 5795 5790 5784 5779 5775 5773 5768 5757 5750 5745 5744 5743 5739 5731 5728 5723 5719 5716 5712 5709 5708 5705 5704
5804 5789 5778 5774 5795 5806 5800 5811 5820 5815 5789 5793 5799 5775 5779 5781 5782 5774 5776 5801 5799 5788 5779 5774 5772 5770 5771 5763 5757 5751 5748 5752 5744 5740 5732 5729 5724 5720 5718 5715 5711 5708 5706 5703
5792 5767 5787 5800 5808 5814 5812 5812 5816 5807 5814 5795 5807 5789 5768 5769 5773 5771 5762 5787 5788 5785 5777 5772 5766 5766 5765 5760 5757 5753 5752 5751 5745 5737 5732 5727 5723 5723 5717 5712 5709 5707 5705 5702
5786 5760 5775 5777 5800 5812 5806 5818 5822 5819 5818 5819 5822 5753 5758 5761 5765 5761 5752 5770 5775 5776 5772 5771 5766 5762 5757 5756 5753 5752 5750 5749 5746 5738 5732 5727 5721 5715 5712 5708 5705 5703 5701 5698
5765 5765 5760 5753 5787 5796 5786 5809 5812 5818 5823 5820 5786 5764 5754 5744 5751 5751 5755 5770 5772 5773 5764 5758 5756 5753 5748 5749 5748 5744 5744 5743 5739 5734 5730 5725 5718 5711 5707 5705 5703 5699 5695 5691
5753 5755 5759 5752 5770 5740 5793 5803 5806 5803 5821 5828 5796 5769 5753 5759 5749 5752 5781 5775 5769 5760 5757 5754 5751 5745 5740 5738 5736 5733 5732 5732 5732 5729 5724 5720 5716 5710 5704 5698 5692 5687 5684 5680
5757 5745 5744 5735 5745 5769 5772 5784 5779 5790 5796 5820 5809 5768 5753 5755 5755 5759 5763 5761 5758 5754 5747 5739 5733 5727 5722 5719 5720 5723 5724 5721 5724 5722 5718 5714 5709 5698 5690 5685 5682 5676 5673 5665
5759 5755 5735 5731 5731 5728 5783 5792 5805 5800 5767 5808 5807 5782 5763 5761 5739 5730 5748 5745 5743 5740 5729 5721 5716 5712 5709 5707 5711 5714 5719 5718 5714 5706 5703 5698 5690 5681 5672 5671 5667 5663 5661 5654
5730 5733 5727 5731 5728 5754 5787 5786 5793 5750 5753 5785 5779 5785 5766 5758 5752 5745 5743 5735 5731 5724 5712 5709 5703 5700 5697 5697 5697 5696 5696 5694 5691 5691 5687 5683 5674 5664 5659 5655 5652 5648 5644 5638
5727 5725 5724 5730 5724 5720 5781 5775 5754 5758 5771 5769 5760 5750 5743 5738 5736 5734 5728 5722 5714 5706 5701 5695 5690 5686 5685 5685 5684 5681 5679 5677 5676 5676 5672 5665 5660 5653 5647 5644 5636 5629 5625 5620
5696 5710 5723 5713 5716 5747 5760 5751 5762 5767 5761 5756 5754 5748 5741 5731 5726 5722 5712 5703 5697 5690 5686 5682 5678 5675 5674 5673 5672 5669 5664 5663 5660 5660 5656 5651 5646 5640 5634 5630 5623 5618 5613 5608
5685 5687 5682 5701 5718 5723 5726 5738 5745 5748 5753 5750 5747 5743 5735 5723 5717 5704 5694 5689 5683 5678 5673 5670 5669 5665 5662 5661 5659 5657 5653 5651 5648 5645 5641 5637 5632 5628 5623 5618 5612 5605 5601 5596
5676 5682 5690 5697 5691 5685 5690 5725 5736 5737 5739 5738 5735 5733 5724 5715 5704 5691 5682 5676 5671 5666 5662 5658 5657 5656 5653 5649 5648 5646 5643 5641 5638 5633 5628 5624 5619 5613 5607 5603 5596 5590 5585 5584
5679 5675 5668 5682 5679 5669 5681 5717 5725 5718 5714 5715 5712 5708 5706 5701 5692 5683 5672 5665 5658 5653 5650 5648 5646 5645 5643 5642 5639 5636 5634 5633 5630 5624 5617 5611 5606 5601 5596 5589 5581 5576 5573 5572